This is the latest recevied weather packets stored in our database for station/object EA1PYE-10. If no packets are shown the sender has not sent any weather packets the latest 10 day(s).
| Time | Temp. | Humidity | Pressure | Rain* | Wind** | Luminosity | Snow |
|---|---|---|---|---|---|---|---|
| 1787553935 | 21.11° C | 54% | 1009.3 hPa | - | - | - | - |
| 1787552135 | 22.22° C | 51% | 1008.6 hPa | - | - | - | - |
| 1787550335 | 21.11° C | 55% | 1008.7 hPa | - | - | - | - |
| 1787548534 | 21.11° C | 54% | 1008.9 hPa | - | - | - | - |
| 1787546734 | 21.11° C | 54% | 1009.1 hPa | - | - | - | - |
| 1787544934 | 21.11° C | 55% | 1009.3 hPa | - | - | - | - |
| 1787543134 | 21.11° C | 54% | 1009.6 hPa | - | - | - | - |
| 1787541334 | 21.11° C | 55% | 1009.6 hPa | - | - | - | - |
| 1787539534 | 21.11° C | 55% | 1009.9 hPa | - | - | - | - |
| 1787537734 | 21.11° C | 54% | 1010.7 hPa | - | - | - | - |
| 1787535934 | 21.11° C | 54% | 1010.7 hPa | - | - | - | - |
| 1787534134 | 21.11° C | 54% | 1010.7 hPa | - | - | - | - |
| 1787532334 | 21.11° C | 54% | 1011.2 hPa | - | - | - | - |
| 1787530534 | 21.11° C | 54% | 1011.6 hPa | - | - | - | - |
| 1787528734 | 21.11° C | 54% | 1011.7 hPa | - | - | - | - |
| 1787526933 | 21.11° C | 54% | 1012 hPa | - | - | - | - |
| 1787525133 | 21.11° C | 53% | 1012.2 hPa | - | - | - | - |
| 1787523333 | 21.11° C | 53% | 1012.3 hPa | - | - | - | - |
| 1787521533 | 21.11° C | 53% | 1012.7 hPa | - | - | - | - |
| 1787519733 | 21.11° C | 52% | 1012.8 hPa | - | - | - | - |
| 1787517933 | 21.11° C | 52% | 1012.4 hPa | - | - | - | - |
| 1787516133 | 21.11° C | 51% | 1012.1 hPa | - | - | - | - |
| 1787514333 | 21.11° C | 50% | 1012 hPa | - | - | - | - |
| 1787512533 | 21.11° C | 48% | 1012 hPa | - | - | - | - |
| 1787510733 | 21.11° C | 47% | 1011.8 hPa | - | - | - | - |
* Rain since midnight (hover to see other rain measurements)
** Current wind speed in m/s (hover to see current wind gust speed)